Regional Weather Roundup
Issued by NWS

Home | Current Version | Previous Version | Graphics & Text | Print | Product List | Glossary On
Versions: 1 2 3 4 5 6 7 8 9 10 11 12 13 14 15 16 17 18 19 20 21 22 23 24 25 26 27 28 29 30 31 32 33 34 35 36 37 38 39 40 41 42 43 44 45 46 47 48 49 50
000
ASUS45 KSLC 292010
RWRUT

UTAH REGIONAL WEATHER ROUNDUP
NATIONAL WEATHER SERVICE SALT LAKE CITY UT
200 PM MDT MON SEP 29 2014

UTZ001>011-023>025-292100-

NORTHERN UTAH

CITY           SKY/WX    TMP DP  RH WIND       PRES   REMARKS
HILL AFB       PTSUNNY   61  43  51 VRB2      29.99F
LOGAN          NOT AVBL
OGDEN          MOSUNNY   63  41  44 W9        29.97F
PROVO AIRPORT  NOT AVBL
SALT LAKE CITY PTSUNNY   62  45  53 VRB3      29.97S
VERNAL         PTSUNNY   56  41  57 W8        30.01F
WENDOVER       CLOUDY    59  39  47 NW15      30.01S
HEBER CITY     MOSUNNY   61  37  41 SW7G16    29.99F
WEST JORDAN    PTSUNNY   61  39  44 NW5       29.98F

$$

UTZ012>022-026-027-292100-

SOUTHERN UTAH

CITY           SKY/WX    TMP DP  RH WIND       PRES   REMARKS
BRYCE CANYON   PTSUNNY   53  33  46 W16G23    30.11S
CEDAR CITY     CLOUDY    60  35  39 NE3       30.04F
MILFORD        PTSUNNY   62  38  40 S14       30.01S
MOAB/CYNLANDS  LGT RAIN  56  48  74 W21G28    29.99S
PRICE          CLOUDY    55  41  59 SE9       30.03F
ST GEORGE      PTCLDY    73  39  29 W6        29.99S
KANAB            N/A     63  41  45 S12       30.08S

$$

REGIONAL REPORTS     COLORADO/ARIZONA

CITY           SKY/WX    TMP DP  RH WIND       PRES   REMARKS
CRAIG, CO      CLOUDY    59  41  51 W13       29.99F
GRAND JUNCTION CLOUDY    57  49  74 W13       29.97S
RIFLE          CLOUDY    60  41  49 W14       29.94F
MONTROSE       LGT RAIN  55  42  61 SW23G31   30.04R
CORTEZ         MOSUNNY   60  41  49 SW22G28   30.03S
PAGE, AZ       NOT AVBL
GRAND CANYON   MOSUNNY   59  36  42 SW13G24   30.12F
KINGMAN        NOT AVBL
FLAGSTAFF      SUNNY     60  30  32 W8        30.13F

$$

REGIONAL REPORTS    NEVADA/IDAHO/WYOMING

CITY           SKY/WX    TMP DP  RH WIND       PRES   REMARKS
LAS VEGAS, NV  MOSUNNY   78  36  21 S9        29.90F
ELY            CLOUDY    55  34  45 W9        30.07S
ELKO           CLOUDY    50  44  80 S8        30.06S
POCATELLO, ID  PTSUNNY   60  48  64 W14       29.98F
BURLEY         LGT RAIN  53  46  77 NW3       29.99F
EVANSTON, WY   CLOUDY    48  41  76 S9        30.03F
ROCK SPRINGS   PTSUNNY   53  38  56 SW9       30.02F

$$



USA.gov is the U.S. government's official web portal to all federal, state and local government web resources and services.